EST,Max TemperatureF,Mean TemperatureF,Min TemperatureF,Max Dew PointF,MeanDew PointF,Min DewpointF,Max Humidity, Mean Humidity, Min Humidity, Max Sea Level PressureIn, Mean Sea Level PressureIn, Min Sea Level PressureIn, Max VisibilityMiles, Mean VisibilityMiles, Min VisibilityMiles, Max Wind SpeedMPH, Mean Wind SpeedMPH, Max Gust SpeedMPH,PrecipitationIn, CloudCover, Events, WindDirDegrees
2013-1-1,79,66,52,61,58,52,93,75,56,30.22,30.13,30.07,10,8,5,16,6,21,0.00,7,,176
2013-1-2,81,70,58,65,61,57,100,76,51,30.09,30.05,29.99,10,9,2,13,4,16,0.00,4,,216
2013-1-3,82,70,57,67,64,57,100,77,54,30.16,30.10,30.04,10,9,4,14,6,23,0.00,5,,329
2013-1-4,71,68,64,66,64,61,93,86,79,30.26,30.19,30.13,10,10,7,15,9,20,0.00,8,,341
2013-1-5,78,70,62,70,65,59,97,83,69,30.27,30.23,30.19,10,9,2,16,7,22,0.12,6,Rain,22
2013-1-6,80,70,60,70,66,61,100,87,74,30.21,30.14,30.08,10,5,0,16,4,21,0.30,5,Fog-Rain-Thunderstorm,46
2013-1-7,76,72,67,68,65,63,100,85,69,30.20,30.15,30.11,10,8,3,20,10,25,0.16,8,Rain,28
2013-1-8,78,72,66,70,67,64,100,87,68,30.23,30.17,30.12,10,9,4,16,6,26,0.04,6,Rain,107
2013-1-9,81,75,69,72,70,66,100,85,69,30.31,30.26,30.20,10,10,8,18,10,23,0.01,4,,116
2013-1-10,79,74,70,69,66,63,90,76,60,30.32,30.29,30.23,10,10,10,18,9,23,0.00,2,,112
2013-1-11,80,74,68,68,66,65,90,76,62,30.28,30.23,30.18,10,10,10,20,9,23,0.00,2,,113
2013-1-12,80,70,59,68,63,57,100,81,62,30.21,30.16,30.12,10,9,0,14,6,18,0.00,1,Fog,99
2013-1-13,79,73,67,65,64,60,87,73,58,30.17,30.13,30.10,10,10,10,16,9,20,0.00,1,,118
2013-1-14,80,69,58,66,63,57,93,78,62,30.20,30.17,30.14,10,10,7,16,7,21,0.00,1,,122
2013-1-15,81,70,59,68,63,59,100,81,62,30.16,30.12,30.08,10,10,10,17,6,22,0.00,2,,128
2013-1-16,82,69,56,67,61,55,100,76,51,30.13,30.07,30.03,10,9,1,16,6,18,0.00,3,,165
2013-1-17,83,70,56,68,62,47,100,78,55,30.10,30.04,29.94,10,10,10,25,10,33,0.00,4,,240
2013-1-18,72,58,44,61,49,37,84,71,57,30.25,30.20,30.11,10,10,8,25,12,31,0.10,4,Rain,357
2013-1-19,75,70,64,65,63,59,93,81,68,30.25,30.18,30.13,10,7,2,18,8,24,0.37,8,Rain,49
2013-1-20,75,69,62,66,64,62,100,84,68,30.17,30.10,30.06,10,8,1,15,7,20,0.00,5,,338
2013-1-21,77,70,62,67,64,60,100,80,60,30.09,30.04,29.99,10,9,1,14,4,18,0.31,7,Rain,317
2013-1-22,70,64,58,60,52,46,93,73,52,30.26,30.15,30.03,10,10,10,24,12,35,0.00,0,,348
2013-1-23,70,60,50,54,48,42,89,72,55,30.34,30.29,30.25,10,10,10,18,9,23,0.00,0,,340
2013-1-24,72,58,43,50,45,40,89,63,37,30.33,30.28,30.24,10,10,8,15,5,17,0.00,0,,354
2013-1-25,75,62,48,54,51,47,96,69,41,30.31,30.25,30.20,10,10,7,14,5,16,0.00,0,,328
2013-1-26,76,61,46,56,51,44,93,65,36,30.28,30.23,30.18,10,10,8,13,5,16,0.00,0,,350
2013-1-27,76,62,47,64,57,46,100,75,50,30.32,30.28,30.23,10,9,6,14,5,18,0.00,1,,40
2013-1-28,78,73,68,68,65,61,90,77,64,30.35,30.29,30.25,10,9,5,15,9,21,0.03,7,Rain,112
2013-1-29,79,71,62,69,66,62,100,84,67,30.26,30.21,30.14,10,8,2,21,8,26,0.01,5,Rain,132
2013-1-30,83,72,61,66,63,60,100,74,47,30.13,30.06,29.95,10,8,0,26,11,33,0.00,2,Fog,169
2013-1-31,71,60,49,67,52,32,93,65,36,30.21,30.07,29.94,10,8,2,23,10,29,0.07,4,Rain,304